Weather History for CWWB - October, 2012

Change the Weather History Date:

Tuesday, October 23, 2012

  Actual Average Record
Temperature  
Mean Temperature 48 °F -  
Max Temperature 52 °F - - ()
Min Temperature 45 °F - - ()
Degree Days  
Heating Degree Days 16    
Moisture  
Dew Point 46 °F    
Average Humidity 93    
Maximum Humidity 95    
Minimum Humidity 87    
Precipitation  
Precipitation 0.00 in - - ()
Sea Level Pressure  
Sea Level Pressure 30.06 in    
Wind  
Wind Speed 10 mph ()    
Max Wind Speed 20 mph    
Max Gust Speed -    
T = Trace of Precipitation, MM = Missing Value Source: Averaged Metar Reports

Daily Weather History Graph

Daily Weather History Graph

Search for Another Location

Airport or City:

Trip Planner

Search our weather history database for the weather conditions in past years. The results will help you decide how hot, cold, wet, or windy it might be!

Date:

Astronomy

Oct. 23, 2012 Rise Set
Actual Time 7:43 AM EDT 6:22 PM EDT
Civil Twilight 7:14 AM EDT 6:51 PM EDT
Nautical Twilight 6:40 AM EDT 7:25 PM EDT
Astronomical Twilight 6:07 AM EDT 7:58 PM EDT
Moon 3:14 PM EDT (10/23) 1:23 AM EDT (10/23)
Length of Visible Light 11h 37m
Length of Day
10h 39m
Waxing Gibbous, 66% of the Moon is Illuminated
Oct 23
Waxing Gibbous
Oct 29
Full
Nov 6
Last Quarter
Nov 13
New
Nov 20
First Quarter

Hourly Weather History & Observations

Time (EDT) Temp. Windchill Dew Point Humidity Pressure Visibility Wind Dir Wind Speed Gust Speed Precip Events Conditions
12:00 AM 50.2 °F - 46.6 °F 87% 30.05 in - North 5.8 mph - N/A   Unknown
1:00 AM 52.3 °F - 48.9 °F 88% 30.05 in - NNE 3.5 mph - N/A   Unknown
2:00 AM 50 °F - 47 °F 88% 30.03 in - NE 6.9 mph - -  
2:00 AM 49.6 °F - 47.5 °F 92% 30.03 in - NE 6.9 mph - N/A   Unknown
4:00 AM 49.5 °F - 47.8 °F 94% 30.04 in - NE 3.5 mph - N/A   Unknown
5:00 AM 49.6 °F - 47.7 °F 93% 30.04 in - NNE 11.5 mph - N/A   Unknown
7:00 AM 47.1 °F - 45.7 °F 95% 30.04 in - East 4.6 mph - N/A   Unknown
8:00 AM 47 °F - 45 °F 92% 30.06 in - ENE 5.8 mph - -  
8:00 AM 46.6 °F - 45.3 °F 95% 30.06 in - ENE 5.8 mph - N/A   Unknown
9:00 AM 47.3 °F - 46.0 °F 95% 30.07 in - NNE 10.4 mph - N/A   Unknown
12:00 PM 47.3 °F - 45.9 °F 95% 30.06 in - North 17.3 mph - N/A   Unknown
1:00 PM 48.4 °F - 46.9 °F 95% 30.05 in - NNE 17.3 mph - N/A   Unknown
2:00 PM 48 °F - 46 °F 92% 30.04 in - North 18.4 mph - -  
2:00 PM 47.8 °F - 46.4 °F 95% 30.04 in - North 18.4 mph - N/A   Unknown
3:00 PM 48.0 °F - 46.6 °F 95% 30.04 in - NNE 17.3 mph - N/A   Unknown
4:00 PM 47.7 °F - 46.4 °F 95% 30.04 in - North 16.1 mph - N/A   Unknown
5:00 PM 47.5 °F - 46.2 °F 95% 30.05 in - North 19.6 mph - N/A   Unknown
6:00 PM 47.5 °F - 46.0 °F 95% 30.06 in - NNE 19.6 mph - N/A   Unknown
7:00 PM 47.7 °F - 46.0 °F 94% 30.08 in - NNE 19.6 mph - N/A   Unknown
8:00 PM 47 °F - 45 °F 92% 30.10 in - NNE 18.4 mph - -  
8:00 PM 46.8 °F - 45.3 °F 95% 30.10 in - NNE 18.4 mph - N/A   Unknown
9:00 PM 46.6 °F - 45.3 °F 95% 30.11 in - North 18.4 mph - N/A   Unknown
10:00 PM 45.9 °F 39.1 °F 44.6 °F 95% 30.12 in - NNE 16.1 mph - N/A   Unknown
11:00 PM 46.0 °F 39.6 °F 44.6 °F 95% 30.12 in - NNE 15.0 mph - N/A   Unknown